sat.trackr.live / text

‹ back to catalog

KUIPER-00058

NORAD 64518 · 2025-134U

PAYLOAD ACTIVE UNKNOWN

§ Identity

Operator
Country
US
Launch date
2025-06-23
Launch site
AFETR
Launch vehicle
Mass (kg)
RCS (m²)

External: N2YO · Heavens-Above · Gunter

§ Orbital elements

Epoch: 2026-05-25T00:21:03.395232Z

Period
97.30 min
Inclination
51.9002°
Eccentricity
0.0001701
Mean motion
14.79938314 rev/d
Perigee alt
628.3 km
Apogee alt
630.7 km
Semi-major
7,007.7 km
B*
4.4838e-4
RAAN
248.0281°
Arg perigee
76.3650°
Mean anomaly
283.7502°
Rev number
5,148

§ Raw data

KUIPER-000581 64518U 25134U   26145.01462263  .00003199  00000+0  44838-3 0  99922 64518  51.9002 248.0281 0001701  76.3650 283.7502 14.79938314 51488

JSON: /api/v1/satellites/64518 · /tle

For live sub-satellite position, see the globe view (requires WebGL).

§ Visibility from observer

Set your observer location to see the next 7 days of passes ≥ 10°. The values pass through the URL so the page stays shareable.

No JS? Fill the form by hand. The geolocation button needs JavaScript.